Year,Month,Day,Hour,Minute,Value (Times are PST for temperature in C)
2014,08,28,00,00,17.80
2014,08,28,00,01,17.80
2014,08,28,00,02,17.80
2014,08,28,00,03,17.80
2014,08,28,00,04,17.80
2014,08,28,00,05,17.80
2014,08,28,00,06,17.80
2014,08,28,00,07,17.80
2014,08,28,00,08,17.80
2014,08,28,00,09,17.80
2014,08,28,00,10,17.80
2014,08,28,00,11,17.70
2014,08,28,00,12,17.70
2014,08,28,00,13,17.70
2014,08,28,00,14,17.70
2014,08,28,00,15,17.70
2014,08,28,00,16,17.70
2014,08,28,00,17,17.70
2014,08,28,00,18,17.60
2014,08,28,00,19,17.60
2014,08,28,00,20,17.60
2014,08,28,00,21,17.60
2014,08,28,00,22,17.60
2014,08,28,00,23,17.50
2014,08,28,00,24,17.50
2014,08,28,00,25,17.50
2014,08,28,00,26,17.50
2014,08,28,00,27,17.50
2014,08,28,00,28,17.50
2014,08,28,00,29,17.50
2014,08,28,00,30,17.50
2014,08,28,00,31,17.50
2014,08,28,00,32,17.50
2014,08,28,00,33,17.50
2014,08,28,00,34,17.60
2014,08,28,00,35,17.60
2014,08,28,00,36,17.60
2014,08,28,00,37,17.70
2014,08,28,00,38,17.70
2014,08,28,00,39,17.80
2014,08,28,00,40,17.80
2014,08,28,00,41,17.80
2014,08,28,00,42,17.80
2014,08,28,00,43,17.80
2014,08,28,00,44,17.80
2014,08,28,00,45,17.90
2014,08,28,00,46,17.90
2014,08,28,00,47,17.90
2014,08,28,00,48,17.90
2014,08,28,00,49,17.90
2014,08,28,00,50,17.90
2014,08,28,00,51,18.00
2014,08,28,00,52,18.00
2014,08,28,00,53,18.00
2014,08,28,00,54,18.00
2014,08,28,00,55,18.10
2014,08,28,00,56,18.10
2014,08,28,00,57,18.10
2014,08,28,00,58,18.10
2014,08,28,00,59,18.20
2014,08,28,01,00,18.20
2014,08,28,01,01,18.20
2014,08,28,01,02,18.20
2014,08,28,01,03,18.20
2014,08,28,01,04,18.20
2014,08,28,01,05,18.30
2014,08,28,01,06,18.30
2014,08,28,01,07,18.30
2014,08,28,01,08,18.30
2014,08,28,01,09,18.30
2014,08,28,01,10,18.40
2014,08,28,01,11,18.40
2014,08,28,01,12,18.40
2014,08,28,01,13,18.40
2014,08,28,01,14,18.40
2014,08,28,01,15,18.40
2014,08,28,01,16,18.40
2014,08,28,01,17,18.50
2014,08,28,01,18,18.50
2014,08,28,01,19,18.50
2014,08,28,01,20,18.60
2014,08,28,01,21,18.60
2014,08,28,01,22,18.60
2014,08,28,01,23,18.60
2014,08,28,01,24,18.70
2014,08,28,01,25,18.70
2014,08,28,01,26,18.70
2014,08,28,01,27,18.70
2014,08,28,01,28,18.70
2014,08,28,01,29,18.70
2014,08,28,01,30,18.70
2014,08,28,01,31,18.70
2014,08,28,01,32,18.70
2014,08,28,01,33,18.70
2014,08,28,01,34,18.70
2014,08,28,01,35,18.70
2014,08,28,01,36,18.60
2014,08,28,01,37,18.60
2014,08,28,01,38,18.60
2014,08,28,01,39,18.50
2014,08,28,01,40,18.50
2014,08,28,01,41,18.40
2014,08,28,01,42,18.30
2014,08,28,01,43,18.30
2014,08,28,01,44,18.20
2014,08,28,01,45,18.20
2014,08,28,01,46,18.10
2014,08,28,01,47,18.10
2014,08,28,01,48,18.00
2014,08,28,01,49,18.00
2014,08,28,01,50,17.90
2014,08,28,01,51,17.90
2014,08,28,01,52,17.90
2014,08,28,01,53,17.80
2014,08,28,01,54,17.80
2014,08,28,01,55,17.80
2014,08,28,01,56,17.70
2014,08,28,01,57,17.70
2014,08,28,01,58,17.70
2014,08,28,01,59,17.70
2014,08,28,02,00,17.70
2014,08,28,02,01,17.70
2014,08,28,02,02,17.60
2014,08,28,02,03,17.60
2014,08,28,02,04,17.60
2014,08,28,02,05,17.60
2014,08,28,02,06,17.60
2014,08,28,02,07,17.60
2014,08,28,02,08,17.60
2014,08,28,02,09,17.60
2014,08,28,02,10,17.50
2014,08,28,02,11,17.50
2014,08,28,02,12,17.50
2014,08,28,02,13,17.50
2014,08,28,02,14,17.40
2014,08,28,02,15,17.40
2014,08,28,02,16,17.40
2014,08,28,02,17,17.40
2014,08,28,02,18,17.40
2014,08,28,02,19,17.40
2014,08,28,02,20,17.40
2014,08,28,02,21,17.30
2014,08,28,02,22,17.30
2014,08,28,02,23,17.30
2014,08,28,02,24,17.30
2014,08,28,02,25,17.30
2014,08,28,02,26,17.30
2014,08,28,02,27,17.20
2014,08,28,02,28,17.20
2014,08,28,02,29,17.20
2014,08,28,02,30,17.20
2014,08,28,02,31,17.20
2014,08,28,02,32,17.20
2014,08,28,02,33,17.10
2014,08,28,02,34,17.10
2014,08,28,02,35,17.10
2014,08,28,02,36,17.10
2014,08,28,02,37,17.10
2014,08,28,02,38,17.10
2014,08,28,02,39,17.10
2014,08,28,02,40,17.10
2014,08,28,02,41,17.10
2014,08,28,02,42,17.10
2014,08,28,02,43,17.10
2014,08,28,02,44,17.10
2014,08,28,02,45,17.10
2014,08,28,02,46,17.10
2014,08,28,02,47,17.10
2014,08,28,02,48,17.00
2014,08,28,02,49,17.00
2014,08,28,02,50,17.00
2014,08,28,02,51,17.00
2014,08,28,02,52,17.00
2014,08,28,02,53,17.00
2014,08,28,02,54,17.00
2014,08,28,02,55,17.00
2014,08,28,02,56,17.00
2014,08,28,02,57,17.00
2014,08,28,02,58,17.00
2014,08,28,02,59,17.00
2014,08,28,03,00,17.00
2014,08,28,03,01,17.00
2014,08,28,03,02,17.00
2014,08,28,03,03,17.00
2014,08,28,03,04,16.90
2014,08,28,03,05,16.90
2014,08,28,03,06,16.90
2014,08,28,03,07,16.90
2014,08,28,03,08,16.90
2014,08,28,03,09,16.80
2014,08,28,03,10,16.80
2014,08,28,03,11,16.80
2014,08,28,03,12,16.80
2014,08,28,03,13,16.80
2014,08,28,03,14,16.80
2014,08,28,03,15,16.80
2014,08,28,03,16,16.80
2014,08,28,03,17,16.80
2014,08,28,03,18,16.80
2014,08,28,03,19,16.80
2014,08,28,03,20,16.70
2014,08,28,03,21,16.70
2014,08,28,03,22,16.70
2014,08,28,03,23,16.70
2014,08,28,03,24,16.70
2014,08,28,03,25,16.70
2014,08,28,03,26,16.60
2014,08,28,03,27,16.60
2014,08,28,03,28,16.60
2014,08,28,03,29,16.60
2014,08,28,03,30,16.50
2014,08,28,03,31,16.50
2014,08,28,03,32,16.50
2014,08,28,03,33,16.50
2014,08,28,03,34,16.40
2014,08,28,03,35,16.40
2014,08,28,03,36,16.40
2014,08,28,03,37,16.40
2014,08,28,03,38,16.40
2014,08,28,03,39,16.40
2014,08,28,03,40,16.30
2014,08,28,03,41,16.30
2014,08,28,03,42,16.30
2014,08,28,03,43,16.30
2014,08,28,03,44,16.30
2014,08,28,03,45,16.30
2014,08,28,03,46,16.30
2014,08,28,03,47,16.30
2014,08,28,03,48,16.30
2014,08,28,03,49,16.30
2014,08,28,03,50,16.30
2014,08,28,03,51,16.30
2014,08,28,03,52,16.30
2014,08,28,03,53,16.30
2014,08,28,03,54,16.40
2014,08,28,03,55,16.40
2014,08,28,03,56,16.40
2014,08,28,03,57,16.50
2014,08,28,03,58,16.50
2014,08,28,03,59,16.60
2014,08,28,04,00,16.60
2014,08,28,04,01,16.70
2014,08,28,04,02,16.70
2014,08,28,04,03,16.70
2014,08,28,04,04,16.70
2014,08,28,04,05,16.70
2014,08,28,04,06,16.70
2014,08,28,04,07,16.70
2014,08,28,04,08,16.70
2014,08,28,04,09,16.70
2014,08,28,04,10,16.70
2014,08,28,04,11,16.70
2014,08,28,04,12,16.60
2014,08,28,04,13,16.60
2014,08,28,04,14,16.60
2014,08,28,04,15,16.60
2014,08,28,04,16,16.60
2014,08,28,04,17,16.50
2014,08,28,04,18,16.50
2014,08,28,04,19,16.50
2014,08,28,04,20,16.50
2014,08,28,04,21,16.40
2014,08,28,04,22,16.40
2014,08,28,04,23,16.40
2014,08,28,04,24,16.40
2014,08,28,04,25,16.40
2014,08,28,04,26,16.40
2014,08,28,04,27,16.30
2014,08,28,04,28,16.30
2014,08,28,04,29,16.30
2014,08,28,04,30,16.30
2014,08,28,04,31,16.20
2014,08,28,04,32,16.20
2014,08,28,04,33,16.20
2014,08,28,04,34,16.20
2014,08,28,04,35,16.20
2014,08,28,04,36,16.10
2014,08,28,04,37,16.10
2014,08,28,04,38,16.10
2014,08,28,04,39,16.10
2014,08,28,04,40,16.10
2014,08,28,04,41,16.10
2014,08,28,04,42,16.00
2014,08,28,04,43,16.00
2014,08,28,04,44,16.00
2014,08,28,04,45,16.00
2014,08,28,04,46,16.00
2014,08,28,04,47,16.00
2014,08,28,04,48,15.90
2014,08,28,04,49,15.90
2014,08,28,04,50,15.90
2014,08,28,04,51,15.90
2014,08,28,04,52,15.90
2014,08,28,04,53,15.90
2014,08,28,04,54,15.90
2014,08,28,04,55,15.90
2014,08,28,04,56,15.90
2014,08,28,04,57,16.00
2014,08,28,04,58,16.00
2014,08,28,04,59,16.00
2014,08,28,05,00,16.00
2014,08,28,05,01,16.00
2014,08,28,05,02,16.00
2014,08,28,05,03,16.00
2014,08,28,05,04,15.90
2014,08,28,05,05,15.90
2014,08,28,05,06,15.90
2014,08,28,05,07,15.90
2014,08,28,05,08,15.90
2014,08,28,05,09,15.80
2014,08,28,05,10,15.80
2014,08,28,05,11,15.80
2014,08,28,05,12,15.80
2014,08,28,05,13,15.80
2014,08,28,05,14,15.80
2014,08,28,05,15,15.70
2014,08,28,05,16,15.70
2014,08,28,05,17,15.70
2014,08,28,05,18,15.70
2014,08,28,05,19,15.70
2014,08,28,05,20,15.70
2014,08,28,05,21,15.70
2014,08,28,05,22,15.70
2014,08,28,05,23,15.70
2014,08,28,05,24,15.70
2014,08,28,05,25,15.70
2014,08,28,05,26,15.70
2014,08,28,05,27,15.70
2014,08,28,05,28,15.70
2014,08,28,05,29,15.70
2014,08,28,05,30,15.70
2014,08,28,05,31,15.70
2014,08,28,05,32,15.70
2014,08,28,05,33,15.70
2014,08,28,05,34,15.80
2014,08,28,05,35,15.80
2014,08,28,05,36,15.80
2014,08,28,05,37,15.80
2014,08,28,05,38,15.80
2014,08,28,05,39,15.80
2014,08,28,05,40,15.80
2014,08,28,05,41,15.80
2014,08,28,05,42,15.80
2014,08,28,05,43,15.80
2014,08,28,05,44,15.80
2014,08,28,05,45,15.80
2014,08,28,05,46,15.80
2014,08,28,05,47,15.80
2014,08,28,05,48,15.80
2014,08,28,05,49,15.80
2014,08,28,05,50,15.80
2014,08,28,05,51,15.90
2014,08,28,05,52,15.90
2014,08,28,05,53,15.90
2014,08,28,05,54,15.90
2014,08,28,05,55,15.90
2014,08,28,05,56,15.90
2014,08,28,05,57,16.00
2014,08,28,05,58,16.00
2014,08,28,05,59,16.00
2014,08,28,06,00,16.00
2014,08,28,06,01,16.00
2014,08,28,06,02,16.00
2014,08,28,06,03,16.00
2014,08,28,06,04,16.10
2014,08,28,06,05,16.10
2014,08,28,06,06,16.10
2014,08,28,06,07,16.10
2014,08,28,06,08,16.10
2014,08,28,06,09,16.10
2014,08,28,06,10,16.10
2014,08,28,06,11,16.10
2014,08,28,06,12,16.10
2014,08,28,06,13,16.10
2014,08,28,06,14,16.10
2014,08,28,06,15,16.00
2014,08,28,06,16,16.00
2014,08,28,06,17,16.00
2014,08,28,06,18,16.00
2014,08,28,06,19,16.00
2014,08,28,06,20,16.00
2014,08,28,06,21,16.00
2014,08,28,06,22,16.00
2014,08,28,06,23,16.00
2014,08,28,06,24,16.10
2014,08,28,06,25,16.10
2014,08,28,06,26,16.10
2014,08,28,06,27,16.10
2014,08,28,06,28,16.10
2014,08,28,06,29,16.10
2014,08,28,06,30,16.10
2014,08,28,06,31,16.10
2014,08,28,06,32,16.10
2014,08,28,06,33,16.10
2014,08,28,06,34,16.10
2014,08,28,06,35,16.10
2014,08,28,06,36,16.10
2014,08,28,06,37,16.10
2014,08,28,06,38,16.00
2014,08,28,06,39,16.00
2014,08,28,06,40,16.00
2014,08,28,06,41,16.00
2014,08,28,06,42,16.00
2014,08,28,06,43,16.00
2014,08,28,06,44,15.90
2014,08,28,06,45,15.90
2014,08,28,06,46,15.90
2014,08,28,06,47,15.90
2014,08,28,06,48,15.90
2014,08,28,06,49,15.90
2014,08,28,06,50,15.90
2014,08,28,06,51,15.90
2014,08,28,06,52,15.90
2014,08,28,06,53,15.80
2014,08,28,06,54,15.80
2014,08,28,06,55,15.80
2014,08,28,06,56,15.80
2014,08,28,06,57,15.80
2014,08,28,06,58,15.80
2014,08,28,06,59,15.80
2014,08,28,07,00,15.80
2014,08,28,07,01,15.80
2014,08,28,07,02,15.80
2014,08,28,07,03,15.80
2014,08,28,07,04,15.80
2014,08,28,07,05,15.80
2014,08,28,07,06,15.80
2014,08,28,07,07,15.80
2014,08,28,07,08,15.80
2014,08,28,07,09,15.80
2014,08,28,07,10,15.80
2014,08,28,07,11,15.90
2014,08,28,07,12,15.90
2014,08,28,07,13,15.90
2014,08,28,07,14,15.90
2014,08,28,07,15,16.00
2014,08,28,07,16,16.00
2014,08,28,07,17,16.10
2014,08,28,07,18,16.10
2014,08,28,07,19,16.10
2014,08,28,07,20,16.20
2014,08,28,07,21,16.20
2014,08,28,07,22,16.20
2014,08,28,07,23,16.30
2014,08,28,07,24,16.30
2014,08,28,07,25,16.30
2014,08,28,07,26,16.40
2014,08,28,07,27,16.40
2014,08,28,07,28,16.40
2014,08,28,07,29,16.50
2014,08,28,07,30,16.60
2014,08,28,07,31,16.60
2014,08,28,07,32,16.60
2014,08,28,07,33,16.70
2014,08,28,07,34,16.80
2014,08,28,07,35,16.80
2014,08,28,07,36,16.80
2014,08,28,07,37,16.90
2014,08,28,07,38,16.90
2014,08,28,07,39,17.00
2014,08,28,07,40,17.00
2014,08,28,07,41,17.10
2014,08,28,07,42,17.10
2014,08,28,07,43,17.10
2014,08,28,07,44,17.20
2014,08,28,07,45,17.20
2014,08,28,07,46,17.20
2014,08,28,07,47,17.30
2014,08,28,07,48,17.30
2014,08,28,07,49,17.30
2014,08,28,07,50,17.30
2014,08,28,07,51,17.30
2014,08,28,07,52,17.30
2014,08,28,07,53,17.30
2014,08,28,07,54,17.20
2014,08,28,07,55,17.20
2014,08,28,07,56,17.10
2014,08,28,07,57,17.10
2014,08,28,07,58,17.10
2014,08,28,07,59,17.10
2014,08,28,08,00,17.10
2014,08,28,08,01,17.10
2014,08,28,08,02,17.10
2014,08,28,08,03,17.10
2014,08,28,08,04,17.10
2014,08,28,08,05,17.20
2014,08,28,08,06,17.30
2014,08,28,08,07,17.40
2014,08,28,08,08,17.50
2014,08,28,08,09,17.60
2014,08,28,08,10,17.70
2014,08,28,08,11,17.80
2014,08,28,08,12,17.90
2014,08,28,08,13,18.00
2014,08,28,08,14,18.10
2014,08,28,08,15,18.20
2014,08,28,08,16,18.30
2014,08,28,08,17,18.40
2014,08,28,08,18,18.60
2014,08,28,08,19,18.70
2014,08,28,08,20,18.80
2014,08,28,08,21,18.80
2014,08,28,08,22,18.90
2014,08,28,08,23,19.00
2014,08,28,08,24,19.10
2014,08,28,08,25,19.10
2014,08,28,08,26,19.20
2014,08,28,08,27,19.30
2014,08,28,08,28,19.40
2014,08,28,08,29,19.40
2014,08,28,08,30,19.50
2014,08,28,08,31,19.60
2014,08,28,08,32,19.60
2014,08,28,08,33,19.70
2014,08,28,08,34,19.70
2014,08,28,08,35,19.70
2014,08,28,08,36,19.70
2014,08,28,08,37,19.70
2014,08,28,08,38,19.70
2014,08,28,08,39,19.70
2014,08,28,08,40,19.60
2014,08,28,08,41,19.60
2014,08,28,08,42,19.60
2014,08,28,08,43,19.60
2014,08,28,08,44,19.50
2014,08,28,08,45,19.50
2014,08,28,08,46,19.50
2014,08,28,08,47,19.50
2014,08,28,08,48,19.50
2014,08,28,08,49,19.60
2014,08,28,08,50,19.60
2014,08,28,08,51,19.60
2014,08,28,08,52,19.60
2014,08,28,08,53,19.60
2014,08,28,08,54,19.60
2014,08,28,08,55,19.60
2014,08,28,08,56,19.60
2014,08,28,08,57,19.70
2014,08,28,08,58,19.70
2014,08,28,08,59,19.70
2014,08,28,09,00,19.70
2014,08,28,09,01,19.70
2014,08,28,09,02,19.70
2014,08,28,09,03,19.80
2014,08,28,09,04,19.70
2014,08,28,09,05,19.70
2014,08,28,09,06,19.70
2014,08,28,09,07,19.60
2014,08,28,09,08,19.60
2014,08,28,09,09,19.50
2014,08,28,09,10,19.50
2014,08,28,09,11,19.40
2014,08,28,09,12,19.40
2014,08,28,09,13,19.40
2014,08,28,09,14,19.40
2014,08,28,09,15,19.40
2014,08,28,09,16,19.40
2014,08,28,09,17,19.40
2014,08,28,09,18,19.40
2014,08,28,09,19,19.30
2014,08,28,09,20,19.30
2014,08,28,09,21,19.30
2014,08,28,09,22,19.30
2014,08,28,09,23,19.30
2014,08,28,09,24,19.30
2014,08,28,09,25,19.30
2014,08,28,09,26,19.30
2014,08,28,09,27,19.30
2014,08,28,09,28,19.40
2014,08,28,09,29,19.30
2014,08,28,09,30,19.30
2014,08,28,09,31,19.30
2014,08,28,09,32,19.30
2014,08,28,09,33,19.40
2014,08,28,09,34,19.40
2014,08,28,09,35,19.50
2014,08,28,09,36,19.50
2014,08,28,09,37,19.60
2014,08,28,09,38,19.70
2014,08,28,09,39,19.70
2014,08,28,09,40,19.70
2014,08,28,09,41,19.70
2014,08,28,09,42,19.70
2014,08,28,09,43,19.70
2014,08,28,09,44,19.70
2014,08,28,09,45,19.70
2014,08,28,09,46,19.70
2014,08,28,09,47,19.70
2014,08,28,09,48,19.80
2014,08,28,09,49,19.80
2014,08,28,09,50,19.90
2014,08,28,09,51,19.90
2014,08,28,09,52,19.90
2014,08,28,09,53,19.90
2014,08,28,09,54,19.90
2014,08,28,09,55,19.90
2014,08,28,09,56,19.90
2014,08,28,09,57,19.90
2014,08,28,09,58,19.90
2014,08,28,09,59,19.90
2014,08,28,10,00,19.90
2014,08,28,10,01,19.90
2014,08,28,10,02,20.00
2014,08,28,10,03,20.00
2014,08,28,10,04,20.10
2014,08,28,10,05,20.10
2014,08,28,10,06,20.20
2014,08,28,10,07,20.30
2014,08,28,10,08,20.30
2014,08,28,10,09,20.30
2014,08,28,10,10,20.30
2014,08,28,10,11,20.40
2014,08,28,10,12,20.40
2014,08,28,10,13,20.40
2014,08,28,10,14,20.40
2014,08,28,10,15,20.30
2014,08,28,10,16,20.30
2014,08,28,10,17,20.20
2014,08,28,10,18,20.10
2014,08,28,10,19,20.10
2014,08,28,10,20,20.10
2014,08,28,10,21,20.00
2014,08,28,10,22,20.00
2014,08,28,10,23,20.00
2014,08,28,10,24,20.00
2014,08,28,10,25,20.00
2014,08,28,10,26,20.00
2014,08,28,10,27,20.10
2014,08,28,10,28,20.10
2014,08,28,10,29,20.10
2014,08,28,10,30,20.10
2014,08,28,10,31,20.10
2014,08,28,10,32,20.10
2014,08,28,10,33,20.10
2014,08,28,10,34,20.00
2014,08,28,10,35,20.00
2014,08,28,10,36,20.00
2014,08,28,10,37,20.00
2014,08,28,10,38,20.00
2014,08,28,10,39,20.00
2014,08,28,10,40,19.90
2014,08,28,10,41,20.00
2014,08,28,10,42,20.00
2014,08,28,10,43,20.10
2014,08,28,10,44,20.20
2014,08,28,10,45,20.20
2014,08,28,10,46,20.20
2014,08,28,10,47,20.30
2014,08,28,10,48,20.40
2014,08,28,10,49,20.50
2014,08,28,10,50,20.60
2014,08,28,10,51,20.60
2014,08,28,10,52,20.70
2014,08,28,10,53,20.70
2014,08,28,10,54,20.80
2014,08,28,10,55,20.80
2014,08,28,10,56,20.90
2014,08,28,10,57,20.90
2014,08,28,10,58,21.00
2014,08,28,10,59,21.20
2014,08,28,11,00,21.30
2014,08,28,11,01,21.30
2014,08,28,11,02,21.20
2014,08,28,11,03,21.20
2014,08,28,11,04,21.20
2014,08,28,11,05,21.20
2014,08,28,11,06,21.20
2014,08,28,11,07,21.10
2014,08,28,11,08,21.10
2014,08,28,11,09,21.00
2014,08,28,11,10,20.90
2014,08,28,11,11,20.90
2014,08,28,11,12,21.00
2014,08,28,11,13,21.10
2014,08,28,11,14,21.10
2014,08,28,11,15,21.20
2014,08,28,11,16,21.30
2014,08,28,11,17,21.30
2014,08,28,11,18,21.30
2014,08,28,11,19,21.20
2014,08,28,11,20,21.20
2014,08,28,11,21,21.10
2014,08,28,11,22,21.10
2014,08,28,11,23,21.10
2014,08,28,11,24,21.00
2014,08,28,11,25,21.00
2014,08,28,11,26,20.90
2014,08,28,11,27,20.90
2014,08,28,11,28,20.80
2014,08,28,11,29,20.80
2014,08,28,11,30,20.80
2014,08,28,11,31,20.80
2014,08,28,11,32,20.90
2014,08,28,11,33,21.00
2014,08,28,11,34,21.20
2014,08,28,11,35,21.40
2014,08,28,11,36,21.60
2014,08,28,11,37,21.80
2014,08,28,11,38,21.90
2014,08,28,11,39,22.10
2014,08,28,11,40,22.20
2014,08,28,11,41,22.30
2014,08,28,11,42,22.50
2014,08,28,11,43,22.60
2014,08,28,11,44,22.50
2014,08,28,11,45,22.40
2014,08,28,11,46,22.40
2014,08,28,11,47,22.30
2014,08,28,11,48,22.20
2014,08,28,11,49,22.10
2014,08,28,11,50,22.00
2014,08,28,11,51,22.00
2014,08,28,11,52,22.00
2014,08,28,11,53,22.10
2014,08,28,11,54,22.20
2014,08,28,11,55,22.20
2014,08,28,11,56,22.20
2014,08,28,11,57,22.20
2014,08,28,11,58,22.10
2014,08,28,11,59,21.90
2014,08,28,12,00,21.80
2014,08,28,12,01,21.80
2014,08,28,12,02,21.80
2014,08,28,12,03,21.70
2014,08,28,12,04,21.60
2014,08,28,12,05,21.60
2014,08,28,12,06,21.60
2014,08,28,12,07,21.60
2014,08,28,12,08,21.60
2014,08,28,12,09,21.70
2014,08,28,12,10,21.70
2014,08,28,12,11,21.80
2014,08,28,12,12,21.90
2014,08,28,12,13,22.00
2014,08,28,12,14,22.10
2014,08,28,12,15,22.10
2014,08,28,12,16,22.20
2014,08,28,12,17,22.20
2014,08,28,12,18,22.10
2014,08,28,12,19,22.10
2014,08,28,12,20,22.10
2014,08,28,12,21,22.10
2014,08,28,12,22,22.20
2014,08,28,12,23,22.10
2014,08,28,12,24,22.10
2014,08,28,12,25,22.00
2014,08,28,12,26,21.90
2014,08,28,12,27,21.80
2014,08,28,12,28,21.80
2014,08,28,12,29,21.80
2014,08,28,12,30,21.80
2014,08,28,12,31,21.80
2014,08,28,12,32,21.80
2014,08,28,12,33,21.80
2014,08,28,12,34,21.60
2014,08,28,12,35,21.40
2014,08,28,12,36,21.30
2014,08,28,12,37,21.20
2014,08,28,12,38,21.20
2014,08,28,12,39,21.20
2014,08,28,12,40,21.20
2014,08,28,12,41,21.30
2014,08,28,12,42,21.50
2014,08,28,12,43,21.50
2014,08,28,12,44,21.60
2014,08,28,12,45,21.70
2014,08,28,12,46,21.60
2014,08,28,12,47,21.50
2014,08,28,12,48,21.40
2014,08,28,12,49,21.30
2014,08,28,12,50,21.30
2014,08,28,12,51,21.30
2014,08,28,12,52,21.30
2014,08,28,12,53,21.30
2014,08,28,12,54,21.30
2014,08,28,12,55,21.40
2014,08,28,12,56,21.40
2014,08,28,12,57,21.50
2014,08,28,12,58,21.40
2014,08,28,12,59,21.40
2014,08,28,13,00,21.50
2014,08,28,13,01,21.50
2014,08,28,13,02,21.50
2014,08,28,13,03,21.60
2014,08,28,13,04,21.70
2014,08,28,13,05,21.80
2014,08,28,13,06,21.80
2014,08,28,13,07,21.70
2014,08,28,13,08,21.60
2014,08,28,13,09,21.50
2014,08,28,13,10,21.40
2014,08,28,13,11,21.30
2014,08,28,13,12,21.30
2014,08,28,13,13,21.40
2014,08,28,13,14,21.40
2014,08,28,13,15,21.50
2014,08,28,13,16,21.60
2014,08,28,13,17,21.70
2014,08,28,13,18,21.70
2014,08,28,13,19,21.80
2014,08,28,13,20,21.70
2014,08,28,13,21,21.60
2014,08,28,13,22,21.60
2014,08,28,13,23,21.70
2014,08,28,13,24,21.80
2014,08,28,13,25,21.90
2014,08,28,13,26,22.00
2014,08,28,13,27,22.10
2014,08,28,13,28,22.10
2014,08,28,13,29,22.00
2014,08,28,13,30,22.10
2014,08,28,13,31,22.10
2014,08,28,13,32,22.10
2014,08,28,13,33,22.20
2014,08,28,13,34,22.30
2014,08,28,13,35,22.40
2014,08,28,13,36,22.50
2014,08,28,13,37,22.60
2014,08,28,13,38,22.50
2014,08,28,13,39,22.50
2014,08,28,13,40,22.50
2014,08,28,13,41,22.50
2014,08,28,13,42,22.50
2014,08,28,13,43,22.40
2014,08,28,13,44,22.40
2014,08,28,13,45,22.40
2014,08,28,13,46,22.40
2014,08,28,13,47,22.40
2014,08,28,13,48,22.50
2014,08,28,13,49,22.60
2014,08,28,13,50,22.70
2014,08,28,13,51,22.70
2014,08,28,13,52,22.60
2014,08,28,13,53,22.60
2014,08,28,13,54,22.50
2014,08,28,13,55,22.40
2014,08,28,13,56,22.30
2014,08,28,13,57,22.30
2014,08,28,13,58,22.30
2014,08,28,13,59,22.30
2014,08,28,14,00,22.30
2014,08,28,14,01,22.30
2014,08,28,14,02,22.30
2014,08,28,14,03,22.30
2014,08,28,14,04,22.30
2014,08,28,14,05,22.30
2014,08,28,14,06,22.20
2014,08,28,14,07,22.20
2014,08,28,14,08,22.20
2014,08,28,14,09,22.20
2014,08,28,14,10,22.20
2014,08,28,14,11,22.20
2014,08,28,14,12,22.20
2014,08,28,14,13,22.30
2014,08,28,14,14,22.30
2014,08,28,14,15,22.40
2014,08,28,14,16,22.50
2014,08,28,14,17,22.60
2014,08,28,14,18,22.60
2014,08,28,14,19,22.60
2014,08,28,14,20,22.60
2014,08,28,14,21,22.60
2014,08,28,14,22,22.60
2014,08,28,14,23,22.50
2014,08,28,14,24,22.50
2014,08,28,14,25,22.40
2014,08,28,14,26,22.40
2014,08,28,14,27,22.40
2014,08,28,14,28,22.40
2014,08,28,14,29,22.30
2014,08,28,14,30,22.30
2014,08,28,14,31,22.30
2014,08,28,14,32,22.20
2014,08,28,14,33,22.20
2014,08,28,14,34,22.10
2014,08,28,14,35,22.10
2014,08,28,14,36,22.20
2014,08,28,14,37,22.20
2014,08,28,14,38,22.20
2014,08,28,14,39,22.20
2014,08,28,14,40,22.30
2014,08,28,14,41,22.30
2014,08,28,14,42,22.30
2014,08,28,14,43,22.20
2014,08,28,14,44,22.10
2014,08,28,14,45,21.90
2014,08,28,14,46,21.80
2014,08,28,14,47,21.80
2014,08,28,14,48,21.70
2014,08,28,14,49,21.70
2014,08,28,14,50,21.60
2014,08,28,14,51,21.70
2014,08,28,14,52,21.70
2014,08,28,14,53,21.80
2014,08,28,14,54,21.80
2014,08,28,14,55,21.80
2014,08,28,14,56,21.80
2014,08,28,14,57,22.00
2014,08,28,14,58,22.00
2014,08,28,14,59,22.00
2014,08,28,15,00,22.00
2014,08,28,15,01,21.80
2014,08,28,15,02,21.80
2014,08,28,15,03,21.70
2014,08,28,15,04,21.70
2014,08,28,15,05,21.70
2014,08,28,15,06,21.70
2014,08,28,15,07,21.70
2014,08,28,15,08,21.80
2014,08,28,15,09,21.80
2014,08,28,15,10,21.90
2014,08,28,15,11,21.90
2014,08,28,15,12,21.80
2014,08,28,15,13,21.90
2014,08,28,15,14,21.90
2014,08,28,15,15,21.90
2014,08,28,15,16,21.90
2014,08,28,15,17,21.80
2014,08,28,15,18,21.80
2014,08,28,15,19,21.80
2014,08,28,15,20,21.80
2014,08,28,15,21,21.80
2014,08,28,15,22,21.80
2014,08,28,15,23,21.80
2014,08,28,15,24,21.80
2014,08,28,15,25,21.90
2014,08,28,15,26,21.90
2014,08,28,15,27,22.00
2014,08,28,15,28,22.10
2014,08,28,15,29,22.10
2014,08,28,15,30,22.10
2014,08,28,15,31,22.10
2014,08,28,15,32,22.20
2014,08,28,15,33,22.20
2014,08,28,15,34,22.20
2014,08,28,15,35,22.10
2014,08,28,15,36,22.10
2014,08,28,15,37,22.10
2014,08,28,15,38,22.20
2014,08,28,15,39,22.20
2014,08,28,15,40,22.20
2014,08,28,15,41,22.20
2014,08,28,15,42,22.20
2014,08,28,15,43,22.20
2014,08,28,15,44,22.10
2014,08,28,15,45,22.10
2014,08,28,15,46,22.10
2014,08,28,15,47,22.00
2014,08,28,15,48,22.10
2014,08,28,15,49,22.10
2014,08,28,15,50,22.20
2014,08,28,15,51,22.20
2014,08,28,15,52,22.30
2014,08,28,15,53,22.50
2014,08,28,15,54,22.60
2014,08,28,15,55,22.70
2014,08,28,15,56,22.80
2014,08,28,15,57,22.90
2014,08,28,15,58,22.90
2014,08,28,15,59,23.00
2014,08,28,16,00,23.00
2014,08,28,16,01,23.10
2014,08,28,16,02,23.10
2014,08,28,16,03,23.10
2014,08,28,16,04,23.00
2014,08,28,16,05,23.00
2014,08,28,16,06,22.90
2014,08,28,16,07,22.90
2014,08,28,16,08,22.80
2014,08,28,16,09,22.80
2014,08,28,16,10,22.70
2014,08,28,16,11,22.70
2014,08,28,16,12,22.70
2014,08,28,16,13,22.70
2014,08,28,16,14,22.70
2014,08,28,16,15,22.70
2014,08,28,16,16,22.80
2014,08,28,16,17,22.80
2014,08,28,16,18,22.90
2014,08,28,16,19,22.90
2014,08,28,16,20,22.90
2014,08,28,16,21,22.90
2014,08,28,16,22,23.00
2014,08,28,16,23,23.00
2014,08,28,16,24,22.90
2014,08,28,16,25,22.80
2014,08,28,16,26,22.70
2014,08,28,16,27,22.60
2014,08,28,16,28,22.60
2014,08,28,16,29,22.60
2014,08,28,16,30,22.50
2014,08,28,16,31,22.50
2014,08,28,16,32,22.50
2014,08,28,16,33,22.50
2014,08,28,16,34,22.60
2014,08,28,16,35,22.60
2014,08,28,16,36,22.60
2014,08,28,16,37,22.60
2014,08,28,16,38,22.70
2014,08,28,16,39,22.70
2014,08,28,16,40,22.80
2014,08,28,16,41,22.80
2014,08,28,16,42,22.80
2014,08,28,16,43,22.90
2014,08,28,16,44,23.00
2014,08,28,16,45,23.00
2014,08,28,16,46,23.10
2014,08,28,16,47,23.10
2014,08,28,16,48,23.20
2014,08,28,16,49,23.20
2014,08,28,16,50,23.20
2014,08,28,16,51,23.20
2014,08,28,16,52,23.20
2014,08,28,16,53,23.10
2014,08,28,16,54,23.10
2014,08,28,16,55,23.10
2014,08,28,16,56,23.10
2014,08,28,16,57,23.10
2014,08,28,16,58,23.00
2014,08,28,16,59,22.90
2014,08,28,17,00,22.90
2014,08,28,17,01,22.80
2014,08,28,17,02,22.80
2014,08,28,17,03,22.70
2014,08,28,17,04,22.70
2014,08,28,17,05,22.60
2014,08,28,17,06,22.60
2014,08,28,17,07,22.50
2014,08,28,17,08,22.50
2014,08,28,17,09,22.40
2014,08,28,17,10,22.40
2014,08,28,17,11,22.30
2014,08,28,17,12,22.30
2014,08,28,17,13,22.20
2014,08,28,17,14,22.10
2014,08,28,17,15,22.10
2014,08,28,17,16,22.10
2014,08,28,17,17,22.10
2014,08,28,17,18,22.00
2014,08,28,17,19,22.00